Arlington, WA
on Sunday, November 25, 2012

Sunday
Previous Day Next Day
Daily Summary
 ActualAverageRecord
Temperature
Mean Temperature °F °F  
Max Temperature 46°F 51°F 51°F (1976)
Min Temperature 26°F 40°F 24°F (2002)
Degree Days
Heating Degree Days 29    
Moisture
Dew Point 32°F   
Average Humidity 90    
Maximum Humidity 100    
Minimum Humidity 71    
Precipitation
Precipitation 0.00 in in in ()
Wind
Wind Speed 1 mph   
Max Wind Speed 8 mph   
Max Gust Speed mph   
Visibility 6 miles   
Events     
Averages and records for this station are not official NWS values.
Key: T is trace of precipitation, MM is missing value
Source: NWS Daily Summary
Seasonal Weather Averages
Time(PST)TemperatureDew PointHumidity Pressure Visibility Wind DirectionWind SpeedGust SpeedPrecipitationEvents Conditions
12:15 AM 30.2°F 28.4°F 93% 30.29 in 0.2 miles Calm Calm - N/A   Overcast
12:35 AM 30.2°F 28.4°F 93% 30.29 in 0.5 miles Calm Calm - N/A   Overcast
12:55 AM 28.4°F 26.6°F 93% 30.30 in 0.2 miles Calm Calm - N/A   Overcast
1:15 AM 30.2°F 28.4°F 93% 30.30 in 0.8 miles Calm Calm - N/A   Overcast
1:35 AM 30.2°F 28.4°F 93% 30.30 in 0.8 miles Calm Calm - N/A   Overcast
1:55 AM 30.2°F 30.2°F 100% 30.30 in 2.5 miles Calm Calm - N/A   Overcast
2:15 AM 30.2°F 28.4°F 93% 30.31 in 7.0 miles Calm Calm - N/A   Overcast
2:35 AM 32.0°F 30.2°F 93% 30.31 in 10.0 miles Calm Calm - N/A   Overcast
2:55 AM 32.0°F 30.2°F 93% 30.32 in 9.0 miles Calm Calm - N/A   Overcast
3:15 AM 33.8°F 30.2°F 87% 30.32 in 10.0 miles Calm Calm - N/A   Overcast
3:35 AM 32.0°F 30.2°F 93% 30.32 in 7.0 miles Calm Calm - N/A   Mostly Cloudy
3:55 AM 33.8°F 30.2°F 87% 30.32 in 9.0 miles Calm Calm - N/A   Mostly Cloudy
4:15 AM 33.8°F 32.0°F 93% 30.32 in 10.0 miles Calm Calm - N/A   Mostly Cloudy
4:35 AM 32.0°F 30.2°F 93% 30.32 in 10.0 miles Calm Calm - N/A   Mostly Cloudy
4:55 AM 33.8°F 32.0°F 93% 30.32 in 7.0 miles Calm Calm - N/A   Overcast
5:15 AM 33.8°F 32.0°F 93% 30.32 in 1.5 miles Calm Calm - N/A   Overcast
5:35 AM 30.2°F 30.2°F 100% 30.32 in 0.5 miles Calm Calm - N/A   Overcast
5:55 AM 32.0°F 30.2°F 93% 30.33 in 0.8 miles Calm Calm - N/A   Overcast
6:15 AM 32.0°F 30.2°F 93% 30.32 in 2.5 miles Calm Calm - N/A   Overcast
6:35 AM 33.8°F 30.2°F 87% 30.33 in 5.0 miles Calm Calm - N/A   Overcast
6:55 AM 33.8°F 32.0°F 93% 30.33 in 0.2 miles Calm Calm - N/A   Overcast
7:15 AM 30.2°F 28.4°F 93% 30.33 in 0.2 miles Calm Calm - N/A   Overcast
7:35 AM 30.2°F 28.4°F 93% 30.34 in 0.5 miles Calm Calm - N/A   Overcast
7:55 AM 30.2°F 28.4°F 93% 30.35 in 0.8 miles Calm Calm - N/A   Overcast
8:15 AM 30.2°F 28.4°F 93% 30.35 in 0.5 miles Calm Calm - N/A   Overcast
8:35 AM 32.0°F 30.2°F 93% 30.36 in 0.5 miles Calm Calm - N/A   Overcast
8:55 AM 33.8°F 30.2°F 87% 30.36 in 0.5 miles Calm Calm - N/A   Overcast
9:15 AM 33.8°F 32.0°F 93% 30.37 in 0.2 miles Calm Calm - N/A   Overcast
9:35 AM 35.6°F 33.8°F 93% 30.37 in 0.5 miles Calm Calm - N/A   Overcast
9:55 AM 35.6°F 35.6°F 100% 30.37 in 0.2 miles Calm Calm - N/A   Overcast
10:15 AM 37.4°F 35.6°F 93% 30.38 in 3.0 miles Calm Calm - N/A   Overcast
10:35 AM 37.4°F 35.6°F 93% 30.37 in 9.0 miles Calm Calm - N/A   Overcast
10:55 AM 37.4°F 37.4°F 100% 30.37 in 7.0 miles Calm Calm - N/A   Overcast
11:15 AM 39.2°F 37.4°F 93% 30.37 in 10.0 miles Calm Calm - N/A   Mostly Cloudy
11:35 AM 39.2°F 37.4°F 93% 30.37 in 10.0 miles Calm Calm - N/A   Overcast
11:55 AM 39.2°F 37.4°F 93% 30.36 in 10.0 miles Calm Calm - N/A   Overcast
12:15 PM 39.2°F 37.4°F 93% 30.36 in 10.0 miles Calm Calm - N/A   Overcast
12:35 PM 41.0°F 37.4°F 87% 30.35 in 10.0 miles Calm Calm - N/A   Mostly Cloudy
12:55 PM 42.8°F 39.2°F 87% 30.35 in 10.0 miles Calm Calm - N/A   Partly Cloudy
1:15 PM 44.6°F 39.2°F 81% 30.34 in 10.0 miles Calm Calm - N/A   Clear
1:35 PM 44.6°F 39.2°F 81% 30.33 in 10.0 miles Calm Calm - N/A   Clear
1:55 PM 44.6°F 39.2°F 81% 30.33 in 10.0 miles NW 5.8 mph - N/A   Clear
2:15 PM 46.4°F 39.2°F 76% 30.33 in 10.0 miles WNW 6.9 mph - N/A   Clear
2:35 PM 46.4°F 37.4°F 71% 30.33 in 10.0 miles WNW 5.8 mph - N/A   Clear
2:55 PM 46.4°F 37.4°F 71% 30.32 in 10.0 miles NW 5.8 mph - N/A   Clear
3:15 PM 44.6°F 37.4°F 76% 30.32 in 10.0 miles NW 5.8 mph - N/A   Clear
3:35 PM 42.8°F 37.4°F 81% 30.33 in 10.0 miles NW 8.1 mph - N/A   Clear
3:55 PM 42.8°F 35.6°F 76% 30.33 in 10.0 miles NW 8.1 mph - N/A   Clear
4:15 PM 41.0°F 35.6°F 81% 30.33 in 10.0 miles NW 6.9 mph - N/A   Clear
4:35 PM 39.2°F 35.6°F 87% 30.32 in 10.0 miles NW 8.1 mph - N/A   Clear
4:55 PM 37.4°F 33.8°F 87% 30.32 in 10.0 miles NW 6.9 mph - N/A   Clear
5:15 PM 37.4°F 33.8°F 87% 30.32 in 10.0 miles NW 4.6 mph - N/A   Clear
5:35 PM 37.4°F 33.8°F 87% 30.31 in 10.0 miles NNW 5.8 mph - N/A   Clear
5:55 PM 37.4°F 33.8°F 87% 30.30 in 10.0 miles North 5.8 mph - N/A   Clear
6:15 PM 35.6°F 33.8°F 93% 30.30 in 10.0 miles Calm Calm - N/A   Clear
6:35 PM 37.4°F 33.8°F 87% 30.29 in 10.0 miles Calm Calm - N/A   Clear
6:55 PM 35.6°F 32.0°F 87% 30.30 in 10.0 miles Calm Calm - N/A   Clear
7:15 PM 33.8°F 32.0°F 93% 30.29 in 10.0 miles Calm Calm - N/A   Clear
7:35 PM 33.8°F 30.2°F 87% 30.29 in 10.0 miles Calm Calm - N/A   Clear
7:55 PM 33.8°F 30.2°F 87% 30.29 in 8.0 miles Calm Calm - N/A   Clear
8:15 PM 30.2°F 28.4°F 93% 30.29 in 1.0 miles Calm Calm - N/A   Clear
8:35 PM 33.8°F 32.0°F 93% 30.28 in 5.0 miles Calm Calm - N/A   Clear
8:55 PM 30.2°F 28.4°F 93% 30.28 in 0.5 miles Calm Calm - N/A   Unknown
9:15 PM 28.4°F 26.6°F 93% 30.28 in 5.0 miles Calm Calm - N/A   Clear
9:35 PM 30.2°F 26.6°F 86% 30.28 in 0.5 miles Calm Calm - N/A   Mostly Cloudy
9:55 PM 28.4°F 26.6°F 93% 30.27 in 0.2 miles Calm Calm - N/A   Overcast
10:15 PM 28.4°F 28.4°F 100% 30.26 in 0.5 miles Calm Calm - N/A   Overcast
10:35 PM 28.4°F 26.6°F 93% 30.26 in 2.5 miles Calm Calm - N/A   Scattered Clouds
10:55 PM 30.2°F 28.4°F 93% 30.25 in 0.5 miles Calm Calm - N/A   Mostly Cloudy
11:15 PM 30.2°F 28.4°F 93% 30.25 in 0.2 miles Calm Calm - N/A   Overcast
11:35 PM 26.6°F 24.8°F 93% 30.25 in 0.5 miles Calm Calm - N/A   Overcast
11:55 PM 30.2°F 28.4°F 93% 30.26 in 0.2 miles Calm Calm - N/A   Overcast
Moon Phase
Nov. 25 Nov. 28 Dec. 06 Dec. 13 Dec. 20
Sunrise:07:30 AM (PST) Moon Rise:02:47 PM (PST)
Sunset:04:20 PM (PST) Moon Set:04:41 AM (PST)

Copyright © 2014 The Weather Underground, Inc.